Location: Arrodets-la-Barthe
(43.0306°N, 0.2829°E)
Time: 01:10:24
(UTC+00:00)

COSMOS 1867 COOLANT - Visible Passes

Search period start: 15 August 2022 00:00
Search period end: 25 August 2022 00:00
Orbit: 772 x 795 km, 65.0° (Epoch: 12 August)

Date Brightness Start Highest point End Pass type
(mag) Time Alt. Az. Time Alt. Az. Time Alt. Az.
15 Aug ? 01:31:32 21° ESE 01:31:32 21° ESE 01:35:23 10° ENE visible
15 Aug ? 03:12:07 33° WSW 03:14:27 62° NW 03:19:52 10° NNE visible
16 Aug ? 00:59:39 14° E 00:59:39 14° E 01:01:32 10° ENE visible
16 Aug ? 02:40:14 56° SW 02:41:26 84° WNW 02:46:55 10° NNE visible
16 Aug ? 04:22:01 10° W 04:25:45 18° NW 04:29:31 10° N visible
17 Aug ? 02:08:18 72° SE 02:08:27 72° ESE 02:13:54 10° NE visible
17 Aug ? 03:48:53 13° W 03:52:30 23° NW 03:56:48 10° NNE visible
18 Aug ? 01:36:21 47° E 01:36:21 47° E 01:40:48 10° NE visible
18 Aug ? 03:16:55 21° W 03:19:17 29° NW 03:24:01 10° NNE visible
19 Aug ? 01:04:21 30° ENE 01:04:21 30° ENE 01:07:37 10° NE visible
19 Aug ? 02:44:55 33° WNW 02:46:07 37° NW 02:51:11 10° NNE visible
19 Aug ? 04:30:03 10° NW 04:31:14 11° NNW 04:32:26 10° NNW visible
20 Aug ? 00:32:19 19° ENE 00:32:19 19° ENE 00:34:18 10° NE visible
20 Aug ? 02:12:53 49° NW 02:13:01 49° NW 02:18:19 10° NNE visible
20 Aug ? 03:55:24 10° NW 03:57:51 13° NNW 04:00:17 10° N visible
21 Aug ? 00:00:15 12° ENE 00:00:15 12° ENE 00:00:44 10° ENE visible
21 Aug ? 01:40:49 57° N 01:40:49 57° N 01:45:24 10° NNE visible
21 Aug ? 03:21:24 10° WNW 03:24:30 16° NNW 03:27:46 10° N visible
22 Aug ? 01:08:44 44° NNE 01:08:44 44° NNE 01:12:25 10° NNE visible
22 Aug ? 02:49:18 17° WNW 02:51:12 19° NW 02:55:06 10° N visible
23 Aug ? 00:36:37 30° NE 00:36:37 30° NE 00:39:23 10° NE visible
23 Aug ? 02:17:10 24° NW 02:17:57 24° NW 02:22:22 10° NNE visible
24 Aug ? 00:04:28 21° NE 00:04:28 21° NE 00:06:16 10° NE visible
24 Aug ? 01:45:02 31° NW 01:45:02 31° NW 01:49:34 10° NNE visible
24 Aug ? 23:32:18 14° NE 23:32:18 14° NE 23:33:03 10° NE visible
